Overview Statistics Trail Chart Weather Telemetry Raw packets
 

This is the latest recevied weather packets stored in our database for station/object EI8EPB-1. If no packets are shown the sender has not sent any weather packets the latest 10 day(s).

<< 2 3 4 5 6 7 8 >>
Time Temp. Humidity Pressure Rain* Wind** Luminosity Snow
1788537603 17.78° C 75% 1015.2 hPa 0 mm - - -
1788537303 18.33° C 75% 1015.2 hPa 0 mm - - -
1788537003 17.78° C 75% 1015.1 hPa 0 mm - - -
1788536703 18.33° C 74% 1015 hPa 0 mm - - -
1788536403 18.33° C 72% 1015 hPa 0 mm - - -
1788536103 18.89° C 72% 1014.9 hPa 0 mm - - -
1788535803 18.89° C 72% 1015 hPa 0 mm - - -
1788535503 18.89° C 72% 1014.8 hPa 0 mm - - -
1788535221 18.89° C 73% 1014.9 hPa 0 mm - - -
1788534903 18.89° C 72% 1014.7 hPa 0 mm - - -
1788534603 18.89° C 74% 1014.8 hPa 0 mm - - -
1788534303 18.33° C 73% 1015 hPa 0 mm - - -
1788534003 18.33° C 72% 1014.7 hPa 0 mm - - -
1788533703 18.89° C 75% 1014.6 hPa 0 mm - - -
1788533403 18.89° C 75% 1014.6 hPa 0 mm - - -
1788533103 18.89° C 75% 1014.4 hPa 0 mm - - -
1788532803 18.89° C 75% 1014.3 hPa 0 mm - - -
1788532503 18.89° C 75% 1014.3 hPa 0 mm - - -
1788532203 18.89° C 75% 1014.3 hPa 0 mm - - -
1788531903 18.33° C 79% 1014.1 hPa 0 mm - - -
1788531603 17.78° C 78% 1014.3 hPa 0 mm - - -
1788531303 17.78° C 78% 1014.3 hPa 0 mm - - -
1788531003 17.22° C 79% 1014.3 hPa 0 mm - - -
1788530703 17.22° C 81% 1014.4 hPa 0 mm - - -
1788530403 16.67° C 85% 1014.5 hPa 0 mm - - -

* Rain latest hour (hover to see other rain measurements)
** Current wind speed in m/s (hover to see current wind gust speed)